Torna al catalogo

THORAD AGENA D DEB

AttivoSSO
NORAD 4979·DEBRIS·🇺🇸 United States

Lanciato Apr 8, 1970 da Vandenberg Space Force Base

Loading…

Prossimi Passaggi (prossime 24 ore)

TLE

AggiornatoSource: Space-Track

Epoca: Sep 14, 2026, 14:49 UTC

1 04979U 70025GZ  26257.61769130  .00000082  00000-0  17253-3 0  9999
2 04979 100.0330 142.9545 0011936 265.0002 124.5573 13.60014297794205

Traccia THORAD AGENA D DEB in tempo reale con AllMySat

Download on the App Store